Weather in Husarivka

Ukraine / Kharkiv Region     48°52′52″N   37°09′42″E
temp.,
°C
wind,
m/s
gust,
m/s
humid.,
%
clouds,
%
prec.,
mm/h
press.,
hPa
HPBL,
m
28 september, tue
tue2800:00+9n348447 0.2 102091
03:00+9n368598 0.2 1020211
06:00+8nne358890 0.0 1021182
09:00+10nne357095 0.0 1021358
12:00+14nne445427 0.0 10221375
15:00+15nne454747 0.2 10221647
18:00+12ne366254 0.3 1024310
21:00+9ne498053 0.3 1026245
29 september, wed
wed2900:00+7ne4108269 0.0 1027277
03:00+7ne598682 0.0 1028309
06:00+7ne5984100 0.0 1029515
09:00+8ene6875100 0.0 1030674
12:00+11ene675754 0.0 10301347
15:00+12ene564622 0.1 10291613
18:00+10ne47485 0.0 1030167
21:00+7ne410540 0.0 1031186
30 september, thu
thu3000:00+5ene37580 0.0 1031131
03:00+4ne35641 0.0 103275
06:00+3ne35694 0.0 103284
09:00+8ene47535 0.0 1033419
12:00+12ene56370 0.0 10321281
15:00+14ene55320 0.0 10311544
18:00+10ne35440 0.0 103169
21:00+8ene37520 0.0 103299
1 october, fri
fri100:00+7ene35580 0.0 103377
03:00+6ene34620 0.0 103352
06:00+5ene34670 0.0 103469
09:00+9ene47520 0.0 1034398
12:00+13e56395 0.0 10341411
15:00+15e56345 0.0 10331688
18:00+11ene33455 0.0 103342
21:00+8e34510 0.0 103445
2 october, sat
sat200:00+7e22544 0.0 103321
03:00+6ene33604 0.0 103333
06:00+5ene34640 0.0 103362
09:00+10e47490 0.0 1033361
12:00+14e57375 0.0 10321491
15:00+15e67355 0.0 10301739
18:00+12e34466 0.0 103048
21:00+9e33525 0.0 103124